Weather observations for the past three days for
McGrath, McGrath Airport
Imperial (Metric)
Date Time (akdt) Wind (mph) Vis. (mi.) Weather Sky Cond. Temperature (ºF) Relative Humidity Wind Chill (°F) Heat Index (°F) Pressure Precipitation (in)
Air Dwpt 6 hour altimeter (in) sea level (mb) 1 hr 3 hr 6 hr
Max. Min.
15 03:53 Calm 10.00 Light Rain SCT017 BKN025 OVC041 46.9 45 50 46.9 93% 29.66 1004.8 0.01 0.04
15 02:53 SE 3 10.00 Light Rain FEW020 BKN026 OVC047 46.9 45 93% 29.65 1004.3 0.02
15 01:53 S 8 10.00 Light Rain BKN018 OVC026 46.9 44.1 90% 44 29.64 1004.2 0.01
15 00:53 SE 3 10.00 Overcast BKN038 OVC046 48 43 83% 29.63 1003.7
14 23:53 Vrbl 3 10.00 Overcast OVC044 48 44.1 86% 29.61 1003.1
14 22:53 S 6 10.00 Light Rain BKN043 OVC050 48.9 43 80% 47 29.6 1002.7
14 21:53 SE 8 10.00 Overcast FEW027 BKN060 OVC070 50 43 55.9 50 77% 47 29.58 1002.2
14 20:53 S 6 10.00 Overcast FEW050 BKN065 OVC090 52 42.1 69% 29.57 1001.9
14 19:53 S 6 10.00 Overcast BKN045 OVC055 52 41 66% 29.56 1001.5
14 18:53 S 9 10.00 Mostly Cloudy SCT050 BKN065 BKN080 53.1 39 59% 29.55 1001.1
14 17:53 S 7 10.00 Mostly Cloudy BKN045 BKN120 55 39.9 57% 29.54 1000.7
14 16:53 SW 10 G 17 10.00 Mostly Cloudy BKN040 BKN070 55 39 55% 29.54 1000.7
14 15:53 S 5 10.00 Mostly Cloudy BKN040 52 37.9 54 46 59% 29.54 1000.8
14 14:53 SW 8 10.00 Overcast BKN040 OVC120 51.1 39 64% 29.54 1000.7
14 13:53 S 5 10.00 Overcast OVC037 50 39 66% 49 29.53 1000.5
14 12:53 S 8 10.00 Overcast OVC036 48.9 39 69% 46 29.53 1000.4
14 11:53 S 6 10.00 Mostly Cloudy BKN030 BKN150 48.9 39 69% 47 29.52 1000.1
14 10:53 SW 10 G 17 10.00 Mostly Cloudy BKN025 BKN120 48 39 71% 44 29.51 999.8
14 09:53 S 12 G 24 10.00 Mostly Cloudy BKN020 BKN120 46 37.9 50 45 73% 41 29.51 999.7
14 08:53 SW 13 G 21 10.00 Overcast OVC024 45 39 80% 39 29.51 999.6
14 07:53 SW 10 G 22 10.00 Overcast OVC024 45 37.9 77% 40 29.5 999.3
14 06:53 SW 7 10.00 Overcast OVC022 46 39 77% 43 29.49 998.9
14 05:53 SW 9 10.00 Overcast BKN020 OVC027 48 43 83% 44 29.47 998.2
14 04:53 SW 8 10.00 Light Rain BKN016 BKN022 OVC031 50 46 86% 47 29.45 997.6
14 03:53 S 5 10.00 Overcast BKN018 BKN025 OVC080 50 46.9 53.1 50 89% 49 29.43 996.9 0.01
14 02:53 S 7 10.00 Light Rain FEW023 BKN065 OVC090 51.1 46.9 86% 29.41 996.3
14 01:53 S 3 10.00 Overcast BKN039 OVC090 52 48.9 89% 29.41 996.0
14 00:53 Calm 10.00 Overcast SCT043 OVC055 52 50 93% 29.39 995.6 0.01 0.01
13 23:53 SW 5 10.00 Light Rain SCT035 BKN044 OVC060 53.1 51.1 93% 29.39 995.6
13 22:53 Calm 10.00 Overcast OVC055 53.1 51.1 93% 29.39 995.5
13 21:53 SW 3 6.00 Light Rain Fog/Mist SCT020 OVC041 53.1 51.1 57.9 53.1 93% 29.39 995.6 0.06 0.07
13 20:53 Vrbl 5 10.00 Overcast BKN026 OVC030 55.9 48.9 77% 29.4 995.7
13 19:53 Vrbl 5 10.00 Overcast FEW025 SCT070 OVC095 55.9 48.9 77% 29.4 996.0
13 18:53 E 9 G 18 10.00 Light Rain FEW025 SCT040 OVC075 55.9 50 81% 29.42 996.6 0.01
13 17:53 NE 3 10.00 Light Rain SCT015 BKN070 OVC085 57 53.1 87% 29.44 997.2
13 16:53 N 5 10.00 Light Rain SCT015 OVC060 57 53.1 87% 29.47 998.1 0.01
13 15:53 N 5 10.00 Light Rain BKN012 OVC055 57 52 57 53.1 83% 29.49 998.9 0.04
13 14:53 N 5 10.00 Light Rain BKN012 OVC055 55.9 52 87% 29.52 999.8 0.01
13 13:53 N 3 10.00 Light Rain SCT012 OVC060 55 51.1 87% 29.54 1000.6 0.03
13 12:53 Calm 10.00 Light Rain BKN012 OVC060 55 50 83% 29.56 1001.3
13 11:53 Calm 10.00 Overcast BKN010 OVC060 55 50 83% 29.58 1001.9
13 10:53 Calm 10.00 Overcast SCT006 OVC060 54 50 87% 29.6 1002.5
13 09:53 Calm 10.00 Overcast SCT006 OVC050 53.1 50 53.1 51.1 89% 29.61 1002.9 0.01
13 08:53 Calm 7.00 Light Rain FEW016 BKN042 OVC055 52 48.9 89% 29.61 1003.1 0.01
13 07:53 Vrbl 3 10.00 Overcast OVC060 51.1 48.9 92% 29.62 1003.4
13 06:53 SE 5 10.00 Overcast OVC050 51.1 48.9 92% 29.63 1003.7
13 05:53 S 6 10.00 Overcast FEW039 OVC050 52 46.9 83% 29.63 1003.8
13 03:53 Calm 10.00 Overcast OVC046 53.1 48.9 55 53.1 86% 29.63 1003.8 0.02
13 02:53 S 6 10.00 Light Rain FEW034 OVC043 53.1 50 89% 29.63 1003.7
13 01:53 SW 3 10.00 Overcast OVC043 53.1 51.1 93% 29.62 1003.5
13 00:53 SE 3 10.00 Overcast BKN047 OVC055 53.1 51.1 93% 29.61 1003.1 0.01 0.02
12 23:53 S 6 10.00 Overcast OVC050 54 48.9 83% 29.61 1002.9
12 22:53 S 5 10.00 Light Rain OVC060 54 51.1 90% 29.6 1002.8 0.01
12 21:53 Calm 10.00 Light Rain FEW036 OVC065 55 53.1 59 55 93% 29.6 1002.8 0.02 0.2
12 20:53 Calm 10.00 Light Rain FEW039 OVC055 55 54 96% 29.61 1002.9 0.04
12 19:53 SW 5 10.00 Light Rain BKN045 OVC055 55 53.1 93% 29.6 1002.8 0.04
12 18:53 Calm 4.00 Rain Fog/Mist OVC060 55 53.1 93% 29.6 1002.8 0.05 0.1
12 17:53 NW 3 10.00 Light Rain FEW006 OVC070 57 54 90% 29.61 1003.0 0.03
12 16:53 SW 5 6.00 Rain Fog/Mist OVC060 57 54 90% 29.61 1003.1 0.02
12 15:53 Calm 10.00 Light Rain OVC075 59 54 62.1 57.9 83% 29.6 1002.8 0.01 0.02
12 14:53 E 3 10.00 Overcast OVC075 61 50 67% 29.61 1003.1
12 13:53 E 6 10.00 Light Rain OVC075 60.1 53.1 78% 29.64 1004.1 0.01
12 12:53 Calm 10.00 Light Rain FEW040 OVC070 57.9 54 87% 29.66 1004.8
12 11:53 W 3 10.00 Light Rain OVC080 59 51.1 75% 29.68 1005.2
12 10:53 SW 3 10.00 Overcast FEW090 OVC150 61 51.1 70% 29.69 1005.7
12 09:53 Calm 10.00 Overcast BKN100 OVC150 57.9 50 57.9 51.1 75% 29.71 1006.2
12 08:53 N 3 10.00 Mostly Cloudy BKN100 55.9 48.9 77% 29.73 1007.2
12 07:53 Calm 10.00 Fair CLR 53.1 50 89% 29.76 1007.9
12 06:53 Calm 10.00 Fair CLR 51.1 48.9 92% 29.77 1008.5
12 05:53 Calm 10.00 Fair CLR 52 50 93% 29.79 1009.2
12 04:53 N 3 10.00 A Few Clouds FEW070 FEW090 51.1 50 96% 29.82 1010.0
Date Time (akdt) Wind (mph) Vis. (mi.) Weather Sky Cond. Air Dwpt Max. Min. Relative Humidity Wind Chill (°F) Heat Index (°F) altimeter (in) sea level (mb) 1 hr 3 hr 6 hr
6 hour
Temperature (ºF) Pressure Precipitation (in)